Location: Ardick
(31.4613°N, 81.4334°W)
Time: 11:48:50
(UTC+00:00)

N. Korean satellite - Visible Passes

Search period start: 20 September 2021 00:00
Search period end: 30 September 2021 00:00
Orbit: 448 x 498 km, 97.3° (Epoch: 19 September)

Date Brightness Start Highest point End Pass type
(mag) Time Alt. Az. Time Alt. Az. Time Alt. Az.
20 Sep 6.5 10:38:10 10° N 10:41:42 90° WNW 10:45:16 10° SSW visible
21 Sep 8.5 10:10:44 10° NNE 10:13:57 33° E 10:17:12 10° SSE visible
22 Sep 9.8 09:44:15 10° ENE 09:46:07 14° E 09:48:00 10° SE visible
23 Sep 6.6 10:48:08 10° N 10:51:39 62° WNW 10:55:12 10° SSW visible
24 Sep 7.7 10:20:28 10° NNE 10:23:55 47° E 10:27:24 10° S visible
25 Sep 9.5 09:53:29 10° NE 09:56:06 19° E 09:58:43 10° SE visible
27 Sep 6.9 10:30:14 10° NNE 10:33:49 69° E 10:37:25 10° S visible
28 Sep 9.0 10:02:56 10° NE 10:06:01 26° E 10:09:05 10° SSE visible
29 Sep 10.1 09:37:07 10° ENE 09:38:06 11° E 09:39:04 10° ESE visible
